Stündliche Wetter Brüssel

Heute, 10 April, Samstag

Zeit Temperatur Niederschläge Wind Luftdruck Luftfeuchtigkeit
00:00 +8°C° 0 mm 1 m/S 755 mmHg 83%
01:00 +8°C° 0 mm 1 m/S 755 mmHg 84%
02:00 +8°C° 0 mm 1 m/S 755 mmHg 84%
03:00 +8°C° 0 mm 1 m/S 755 mmHg 84%
04:00 +7°C° 0.1 mm 2 m/S 756 mmHg 86%
05:00 +7°C° 0.1 mm 2 m/S 756 mmHg 88%
06:00 +6°C° 0 mm 2 m/S 756 mmHg 87%
07:00 +7°C° 0.2 mm 2 m/S 756 mmHg 87%
08:00 +7°C° 0.2 mm 2 m/S 756 mmHg 87%
09:00 +7°C° 0.2 mm 3 m/S 756 mmHg 87%
10:00 +7°C° 1 mm 3 m/S 756 mmHg 89%
11:00 +7°C° 1 mm 3 m/S 755 mmHg 91%
12:00 +6°C° 1 mm 4 m/S 755 mmHg 92%
13:00 +5°C° 2.4 mm 4 m/S 755 mmHg 93%
14:00 +5°C° 2.4 mm 4 m/S 754 mmHg 94%
15:00 +5°C° 2.4 mm 4 m/S 754 mmHg 95%
16:00 +5°C° 1.4 mm 4 m/S 753 mmHg 95%
17:00 +5°C° 1.4 mm 4 m/S 753 mmHg 96%
18:00 +4°C° 1.4 mm 4 m/S 753 mmHg 96%
19:00 +4°C° 0.2 mm 4 m/S 753 mmHg 96%
20:00 +4°C° 0.2 mm 4 m/S 753 mmHg 96%
21:00 +4°C° 0.2 mm 3 m/S 753 mmHg 97%
22:00 +4°C° 0.1 mm 3 m/S 753 mmHg 97%
23:00 +4°C° 0.1 mm 3 m/S 753 mmHg 97%

Morgen, 11 April, Sonntag

Zeit Temperatur Niederschläge Wind Luftdruck Luftfeuchtigkeit
00:00 +3°C° 0.1 mm 3 m/S 753 mmHg 97%
01:00 +3°C° 0.8 mm 4 m/S 753 mmHg 97%
02:00 +1°C° 0.8 mm 4 m/S 753 mmHg 97%
03:00 0°C° 0.8 mm 4 m/S 754 mmHg 97%
04:00 0°C° 0.7 mm 4 m/S 754 mmHg 97%
05:00 0°C° 0.7 mm 5 m/S 754 mmHg 97%
06:00 0°C° 0.7 mm 5 m/S 755 mmHg 97%
07:00 0°C° 0.4 mm 5 m/S 755 mmHg 97%
08:00 0°C° 0.4 mm 5 m/S 755 mmHg 96%
09:00 +1°C° 0.4 mm 5 m/S 756 mmHg 95%
10:00 +1°C° 0.3 mm 5 m/S 756 mmHg 92%
11:00 +2°C° 0.3 mm 5 m/S 757 mmHg 89%
12:00 +2°C° 0.3 mm 5 m/S 757 mmHg 86%
13:00 +3°C° 0.1 mm 5 m/S 757 mmHg 83%
14:00 +3°C° 0.1 mm 5 m/S 758 mmHg 79%
15:00 +5°C° 0.1 mm 5 m/S 758 mmHg 75%
16:00 +3°C° 0 mm 5 m/S 759 mmHg 75%
17:00 +4°C° 0 mm 4 m/S 759 mmHg 76%
18:00 +4°C° 0 mm 4 m/S 760 mmHg 76%
19:00 +3°C° 0 mm 3 m/S 761 mmHg 78%
20:00 +2°C° 0 mm 3 m/S 761 mmHg 81%
21:00 +1°C° 0 mm 3 m/S 762 mmHg 83%
22:00 +1°C° 0 mm 2 m/S 763 mmHg 84%
23:00 +1°C° 0 mm 2 m/S 763 mmHg 85%

übermorgen, 12 April, Montag

Zeit Temperatur Niederschläge Wind Luftdruck Luftfeuchtigkeit
00:00 -1°C° 0 mm 2 m/S 763 mmHg 87%
01:00 -1°C° 0 mm 2 m/S 764 mmHg 87%
02:00 -1°C° 0 mm 2 m/S 764 mmHg 87%
03:00 +1°C° 0 mm 1 m/S 765 mmHg 88%
04:00 +1°C° 0 mm 1 m/S 765 mmHg 87%
05:00 +2°C° 0 mm 1 m/S 765 mmHg 86%
06:00 +2°C° 0 mm 1 m/S 766 mmHg 85%
07:00 +4°C° 0 mm 1 m/S 766 mmHg 78%
08:00 +5°C° 0 mm 1 m/S 766 mmHg 71%
09:00 +6°C° 0 mm 2 m/S 767 mmHg 64%
10:00 +7°C° 0.4 mm 2 m/S 767 mmHg 62%
11:00 +7°C° 0.4 mm 2 m/S 767 mmHg 61%
12:00 +8°C° 0.4 mm 3 m/S 767 mmHg 59%
13:00 +8°C° 0.4 mm 3 m/S 767 mmHg 57%
14:00 +7°C° 0.4 mm 4 m/S 767 mmHg 56%
15:00 +7°C° 0.4 mm 4 m/S 767 mmHg 54%
16:00 +6°C° 0 mm 4 m/S 767 mmHg 58%
17:00 +5°C° 0 mm 3 m/S 767 mmHg 61%
18:00 +4°C° 0 mm 3 m/S 768 mmHg 64%
19:00 +4°C° 0 mm 2 m/S 768 mmHg 67%
20:00 +3°C° 0 mm 2 m/S 768 mmHg 69%
21:00 +2°C° 0 mm 1 m/S 769 mmHg 71%
22:00 +3°C° 0 mm 1 m/S 769 mmHg 71%
23:00 +3°C° 0 mm 1 m/S 769 mmHg 72%

13 April, Dienstag

Zeit Temperatur Niederschläge Wind Luftdruck Luftfeuchtigkeit
00:00 +2°C° 0 mm 0 m/S 769 mmHg 72%
01:00 +2°C° 0 mm 0 m/S 769 mmHg 73%
02:00 +2°C° 0 mm 0 m/S 769 mmHg 74%
03:00 +1°C° 0 mm 0 m/S 769 mmHg 75%
04:00 +2°C° 0 mm 0 m/S 769 mmHg 75%
05:00 +3°C° 0 mm 1 m/S 770 mmHg 76%
06:00 +3°C° 0 mm 1 m/S 770 mmHg 76%
07:00 +4°C° 0 mm 1 m/S 770 mmHg 70%
08:00 +6°C° 0 mm 1 m/S 770 mmHg 64%
09:00 +6°C° 0 mm 2 m/S 770 mmHg 58%
10:00 +7°C° 0 mm 2 m/S 770 mmHg 52%
11:00 +8°C° 0 mm 2 m/S 770 mmHg 47%
12:00 +9°C° 0 mm 3 m/S 770 mmHg 41%
13:00 +9°C° 0 mm 3 m/S 770 mmHg 42%
14:00 +8°C° 0 mm 4 m/S 770 mmHg 43%
15:00 +8°C° 0 mm 4 m/S 769 mmHg 44%
16:00 +7°C° 0 mm 4 m/S 770 mmHg 51%
17:00 +6°C° 0 mm 4 m/S 770 mmHg 58%
18:00 +5°C° 0 mm 4 m/S 770 mmHg 65%
19:00 +4°C° 0 mm 3 m/S 770 mmHg 70%
20:00 +3°C° 0 mm 3 m/S 770 mmHg 75%
21:00 +3°C° 0 mm 2 m/S 771 mmHg 80%
22:00 +2°C° 0 mm 2 m/S 771 mmHg 82%
23:00 +3°C° 0 mm 1 m/S 771 mmHg 84%

14 April, Mittwoch

Zeit Temperatur Niederschläge Wind Luftdruck Luftfeuchtigkeit
00:00 +2°C° 0 mm 1 m/S 771 mmHg 86%
01:00 +2°C° 0 mm 1 m/S 771 mmHg 87%
02:00 +2°C° 0 mm 1 m/S 771 mmHg 87%
03:00 +1°C° 0 mm 1 m/S 770 mmHg 88%
04:00 +2°C° 0 mm 1 m/S 771 mmHg 86%
05:00 +2°C° 0 mm 1 m/S 771 mmHg 85%
06:00 +3°C° 0 mm 1 m/S 771 mmHg 83%
07:00 +4°C° 0 mm 1 m/S 771 mmHg 73%
08:00 +6°C° 0 mm 1 m/S 771 mmHg 63%
09:00 +7°C° 0 mm 2 m/S 771 mmHg 53%
10:00 +8°C° 0 mm 2 m/S 770 mmHg 50%
11:00 +8°C° 0 mm 2 m/S 770 mmHg 46%
12:00 +9°C° 0 mm 2 m/S 770 mmHg 43%
13:00 +9°C° 0.1 mm 3 m/S 770 mmHg 45%
14:00 +9°C° 0.1 mm 3 m/S 769 mmHg 47%
15:00 +8°C° 0.1 mm 4 m/S 769 mmHg 49%
16:00 +8°C° 0.1 mm 3 m/S 769 mmHg 55%
17:00 +7°C° 0.1 mm 3 m/S 769 mmHg 60%
18:00 +5°C° 0.1 mm 3 m/S 769 mmHg 66%
19:00 +4°C° 0 mm 3 m/S 769 mmHg 69%
20:00 +3°C° 0 mm 3 m/S 770 mmHg 73%
21:00 +2°C° 0 mm 3 m/S 770 mmHg 76%
22:00 +1°C° 0 mm 3 m/S 770 mmHg 79%
23:00 +2°C° 0 mm 2 m/S 770 mmHg 83%

15 April, Donnerstag

Zeit Temperatur Niederschläge Wind Luftdruck Luftfeuchtigkeit
00:00 +1°C° 0 mm 2 m/S 770 mmHg 86%
01:00 +1°C° 0 mm 2 m/S 770 mmHg 87%
02:00 +1°C° 0 mm 2 m/S 770 mmHg 89%
03:00 +1°C° 0 mm 1 m/S 770 mmHg 91%
04:00 +2°C° 0 mm 1 m/S 770 mmHg 89%
05:00 +2°C° 0 mm 1 m/S 770 mmHg 88%
06:00 +3°C° 0 mm 1 m/S 771 mmHg 86%
07:00 +3°C° 0.1 mm 2 m/S 771 mmHg 79%
08:00 +5°C° 0.1 mm 2 m/S 771 mmHg 71%
09:00 +7°C° 0.1 mm 3 m/S 770 mmHg 63%
10:00 +7°C° 0.2 mm 3 m/S 770 mmHg 59%
11:00 +7°C° 0.2 mm 4 m/S 770 mmHg 54%
12:00 +7°C° 0.2 mm 4 m/S 770 mmHg 50%
13:00 +8°C° 0 mm 4 m/S 770 mmHg 48%
14:00 +8°C° 0 mm 5 m/S 769 mmHg 46%
15:00 +8°C° 0 mm 5 m/S 769 mmHg 44%
16:00 +7°C° 0 mm 4 m/S 769 mmHg 49%
17:00 +6°C° 0 mm 4 m/S 769 mmHg 54%
18:00 +5°C° 0 mm 3 m/S 769 mmHg 59%
19:00 +5°C° 0 mm 3 m/S 770 mmHg 60%
20:00 +4°C° 0 mm 3 m/S 770 mmHg 62%
21:00 +3°C° 0 mm 3 m/S 770 mmHg 64%
22:00 +3°C° 0 mm 3 m/S 771 mmHg 68%
23:00 +2°C° 0 mm 3 m/S 771 mmHg 71%
Mehr zeigen

Wir brauchen deine Erlaubnis

Meteoprog und unser Service Anbieter werden persönliche Daten aufbewahren, so wie Cookies, Geräte Bezeichnung oder ähnliche Technologien von deinem Gerät und Prozess, so wie Persönliche Daten Inhalte und Werbungen, genauso wie social Media und den Verkehr zu analysieren.

  • Aufbewahrung und/oder Zugang zu deiner Geräte Informationen.

    Cookies, Geräte Bezeichnung oder andere Informationen, können aufbewahrt oder Zugang zu deinem Gerät erhalten, für den Grund, der oben angegeben wird.

  • Personalisierte Werbung und Inhalte, Messungen, Einblick in das Publikum und Produkt Entwicklung.

    Werbungen und Inhalte können personalisiert werden, basierend auf ein Profil. Mehr Daten können besser personalisierte Werbungen und Inhalte hinzufügen. Werbung und Inhalte können gezeigt und gemessen werden. Einblicke über das Publikum, welche die Werbung gesehen haben und den Inhalt, können abgeleitet werden. So wie Daten können genutzt werden, um es zu verbessern oder die Benutzer Erfahrung zu verbessern das System und die Software.

Wenn du “Ich stimme zu” klickst, erlaubst du uns, die Cookies zu benutzen die Geräte Bezeichnung, den Web oder ähnliche Technologien zu benutzen. Deine Settings, können in deinem Gerät bei deinem Browser geändert werden.

Für den bestimmten Zweck, berechtigten Interessen beruhen darauf, mehr als auf den Inhalt. Du kannst mehr darüber in unseren Privaten und Cookie Politik lesen.